Location: Bailleul
(50.3375°N, 2.8513°E)
Time: 14:54:40
(UTC+00:00)

USA 215 - Pass Details

Date: 16 June 2021
Orbit: 1100 x 1107 km, 123.0° (Epoch: 22 June)

Event Time Altitude Azimuth Distance (km) Brightness Sun altitude
Rises 23:19:05 0° 58° (ENE) 3,924 6.5 -16.0°
Reaches altitude 10° 23:21:34 10° 58° (ENE) 2,964 5.8 -16.0°
Maximum altitude 23:28:08 89° 332° (NNW) 1,107 3.3 -16.1°
Drops below altitude 10° 23:34:41 10° 241° (WSW) 2,955 5.3 -16.2°
Sets 23:37:09 0° 242° (WSW) 3,912 5.9 -16.2°
